Weather History for KEOK - May, 2014

Change the Weather History Date:

Friday, May 9, 2014

  Actual Average Record
Temperature  
Mean Temperature 60 °F -  
Max Temperature 69 °F 72 °F 91 °F (1963)
Min Temperature 51 °F 50 °F 35 °F (1966)
Degree Days  
Heating Degree Days 5    
Growing Degree Days 10 (Base 50)    
Moisture  
Dew Point 51 °F    
Average Humidity 66    
Maximum Humidity 100    
Minimum Humidity 43    
Precipitation  
Precipitation 0.01 in - - ()
Sea Level Pressure  
Sea Level Pressure 29.79 in    
Wind  
Wind Speed 12 mph (WSW)    
Max Wind Speed 18 mph    
Max Gust Speed 24 mph    
Visibility 10 miles    
Events      
Averages and records for this station are not official NWS values.
T = Trace of Precipitation, MM = Missing Value Source: NWS Daily Summary

Daily Weather History Graph

Daily Weather History Graph

Search for Another Location

Airport or City:

Trip Planner

Search our weather history database for the weather conditions in past years. The results will help you decide how hot, cold, wet, or windy it might be!

Date:

Astronomy

May. 09, 2014 Rise Set
Actual Time 5:55 AM CDT 8:09 PM CDT
Civil Twilight 5:25 AM CDT 8:39 PM CDT
Nautical Twilight 4:47 AM CDT 9:17 PM CDT
Astronomical Twilight 4:06 AM CDT 9:58 PM CDT
Moon 3:06 PM CDT (5/9) 2:58 AM CDT (5/9)
Length of Visible Light 15h 14m
Length of Day
14h 14m
Waxing Gibbous, 74% of the Moon is Illuminated
May 9
Waxing Gibbous
May 14
Full
May 21
Last Quarter
May 28
New
Jun 5
First Quarter

Hourly Weather History & Observations

Time (CDT) Temp. Dew Point Humidity Pressure Visibility Wind Dir Wind Speed Gust Speed Precip Events Conditions
12:15 AM 68.0 °F 62.6 °F 83% 29.74 in 10.0 mi SW 10.4 mph - N/A   Mostly Cloudy
12:35 AM 68.0 °F 60.8 °F 78% 29.73 in 10.0 mi SSW 12.7 mph 21.9 mph N/A   Overcast
12:55 AM 68.0 °F 60.8 °F 78% 29.72 in 10.0 mi SSW 9.2 mph 17.3 mph N/A   Mostly Cloudy
1:15 AM 68.0 °F 62.6 °F 83% 29.72 in 10.0 mi South 11.5 mph - N/A   Mostly Cloudy
1:35 AM 68.0 °F 62.6 °F 83% 29.72 in 10.0 mi South 12.7 mph - N/A   Overcast
1:55 AM 66.2 °F 62.6 °F 88% 29.72 in 10.0 mi South 9.2 mph - N/A   Overcast
2:15 AM 66.2 °F 62.6 °F 88% 29.71 in 10.0 mi South 10.4 mph 17.3 mph N/A   Overcast
2:35 AM 66.2 °F 62.6 °F 88% 29.71 in 9.0 mi South 13.8 mph - N/A   Mostly Cloudy
2:55 AM 66.2 °F 64.4 °F 94% 29.71 in 10.0 mi South 13.8 mph - N/A   Mostly Cloudy
3:15 AM 66.2 °F 64.4 °F 94% 29.70 in 10.0 mi South 12.7 mph - N/A   Overcast
3:35 AM 66.2 °F 64.4 °F 94% 29.69 in 10.0 mi South 10.4 mph 17.3 mph N/A   Mostly Cloudy
3:55 AM 64.4 °F 64.4 °F 100% 29.70 in 10.0 mi SSW 13.8 mph 19.6 mph 0.01 in   Overcast
4:15 AM 64.4 °F 64.4 °F 100% 29.70 in 10.0 mi SSW 12.7 mph - N/A   Overcast
4:35 AM 64.4 °F 64.4 °F 100% 29.70 in 10.0 mi South 10.4 mph - N/A   Overcast
4:55 AM 64.4 °F 62.6 °F 94% 29.70 in 10.0 mi SSW 10.4 mph - N/A   Overcast
5:15 AM 64.4 °F 62.6 °F 94% 29.71 in 10.0 mi SW 11.5 mph - N/A   Overcast
5:35 AM 62.6 °F 59.0 °F 88% 29.72 in 10.0 mi WNW 15.0 mph 20.7 mph N/A   Overcast
5:55 AM 60.8 °F 55.4 °F 82% 29.73 in 10.0 mi WNW 16.1 mph - N/A   Overcast
6:15 AM 60.8 °F 55.4 °F 82% 29.74 in 10.0 mi WNW 10.4 mph - N/A   Overcast
6:35 AM 59.0 °F 53.6 °F 82% 29.76 in 10.0 mi West 11.5 mph - N/A   Overcast
6:55 AM 57.2 °F 50.0 °F 77% 29.77 in 10.0 mi West 11.5 mph - N/A   Overcast
7:15 AM 57.2 °F 48.2 °F 72% 29.79 in 10.0 mi WNW 12.7 mph - N/A   Mostly Cloudy
7:35 AM 57.2 °F 48.2 °F 72% 29.80 in 10.0 mi West 16.1 mph - N/A   Partly Cloudy
7:55 AM 55.4 °F 46.4 °F 72% 29.82 in 10.0 mi WNW 13.8 mph - N/A   Clear
8:15 AM 57.2 °F 46.4 °F 67% 29.79 in 10.0 mi NW 9.2 mph - N/A   Clear
8:35 AM 59.0 °F 46.4 °F 63% 29.81 in 10.0 mi WNW 15.0 mph - N/A   Clear
8:55 AM 57.2 °F 46.4 °F 67% 29.81 in 10.0 mi WNW 12.7 mph 19.6 mph N/A   Clear
9:15 AM 59.0 °F 48.2 °F 67% 29.82 in 10.0 mi WNW 12.7 mph - N/A   Clear
9:35 AM 59.0 °F 48.2 °F 67% 29.82 in 10.0 mi West 15.0 mph - N/A   Clear
9:55 AM 59.0 °F 48.2 °F 67% 29.83 in 10.0 mi West 13.8 mph - N/A   Clear
10:15 AM 59.0 °F 46.4 °F 63% 29.82 in 10.0 mi WNW 10.4 mph 18.4 mph N/A   Clear
10:35 AM 60.8 °F 48.2 °F 63% 29.81 in 10.0 mi West 13.8 mph - N/A   Clear
11:15 AM 62.6 °F 48.2 °F 59% 29.83 in 10.0 mi West 12.7 mph 20.7 mph N/A   Clear
11:35 AM 62.6 °F 48.2 °F 59% 29.83 in 10.0 mi WSW 13.8 mph 20.7 mph N/A   Clear
11:55 AM 62.6 °F 48.2 °F 59% 29.83 in 10.0 mi West 17.3 mph - N/A   Clear
12:15 PM 64.4 °F 48.2 °F 56% 29.82 in 10.0 mi West 17.3 mph 24.2 mph N/A   Clear
12:35 PM 64.4 °F 48.2 °F 56% 29.81 in 10.0 mi West 18.4 mph - N/A   Partly Cloudy
12:55 PM 64.4 °F 48.2 °F 56% 29.81 in 10.0 mi WSW 16.1 mph - N/A   Clear
1:15 PM 66.2 °F 48.2 °F 52% 29.81 in 10.0 mi WSW 9.2 mph 20.7 mph N/A   Clear
1:35 PM 66.2 °F 48.2 °F 52% 29.81 in 10.0 mi WSW 16.1 mph - N/A   Clear
1:55 PM 66.2 °F 48.2 °F 52% 29.81 in 10.0 mi WSW 15.0 mph 20.7 mph N/A   Clear
2:15 PM 68.0 °F 48.2 °F 49% 29.81 in 10.0 mi West 17.3 mph 23.0 mph N/A   Clear
2:35 PM 68.0 °F 48.2 °F 49% 29.81 in 10.0 mi WSW 15.0 mph 23.0 mph N/A   Clear
2:55 PM 68.0 °F 48.2 °F 49% 29.81 in 10.0 mi WSW 15.0 mph 20.7 mph N/A   Clear
3:15 PM 68.0 °F 48.2 °F 49% 29.81 in 10.0 mi West 13.8 mph - N/A   Clear
3:35 PM 68.0 °F 48.2 °F 49% 29.81 in 10.0 mi West 18.4 mph - N/A   Clear
3:55 PM 69.8 °F 48.2 °F 46% 29.81 in 10.0 mi West 15.0 mph 24.2 mph N/A   Clear
4:15 PM 69.8 °F 48.2 °F 46% 29.80 in 10.0 mi West 17.3 mph - N/A   Clear
4:35 PM 69.8 °F 48.2 °F 46% 29.80 in 10.0 mi West 15.0 mph 24.2 mph N/A   Clear
4:55 PM 69.8 °F 48.2 °F 46% 29.80 in 10.0 mi WNW 16.1 mph - N/A   Clear
5:15 PM 69.8 °F 48.2 °F 46% 29.81 in 10.0 mi West 12.7 mph 18.4 mph N/A   Clear
5:35 PM 69.8 °F 46.4 °F 43% 29.81 in 10.0 mi West 18.4 mph - N/A   Clear
5:55 PM 69.8 °F 46.4 °F 43% 29.81 in 10.0 mi WNW 15.0 mph - N/A   Clear
6:15 PM 69.8 °F 48.2 °F 46% 29.81 in 10.0 mi West 11.5 mph 20.7 mph N/A   Clear
6:35 PM 68.0 °F 46.4 °F 46% 29.81 in 10.0 mi West 12.7 mph 20.7 mph N/A   Clear
6:55 PM 68.0 °F 46.4 °F 46% 29.81 in 10.0 mi WNW 11.5 mph - N/A   Clear
7:15 PM 68.0 °F 46.4 °F 46% 29.82 in 10.0 mi West 10.4 mph - N/A   Clear
7:35 PM 66.2 °F 46.4 °F 49% 29.81 in 10.0 mi WNW 8.1 mph 15.0 mph N/A   Clear
7:55 PM 64.4 °F 46.4 °F 52% 29.82 in 10.0 mi WNW 5.8 mph - N/A   Clear
8:15 PM 64.4 °F 44.6 °F 49% 29.82 in 10.0 mi WNW 5.8 mph - N/A   Clear
8:35 PM 64.4 °F 44.6 °F 49% 29.84 in 10.0 mi WNW 3.5 mph - N/A   Clear
8:55 PM 62.6 °F 44.6 °F 52% 29.85 in 10.0 mi West 4.6 mph - N/A   Clear
9:15 PM 60.8 °F 44.6 °F 55% 29.86 in 10.0 mi West 4.6 mph - N/A   Clear
9:35 PM 59.0 °F 46.4 °F 63% 29.86 in 10.0 mi Calm Calm - N/A   Clear
9:55 PM 57.2 °F 46.4 °F 67% 29.87 in 10.0 mi Calm Calm - N/A   Clear
10:15 PM 59.0 °F 44.6 °F 59% 29.88 in 10.0 mi Calm Calm - N/A   Clear
10:35 PM 53.6 °F 46.4 °F 77% 29.89 in 10.0 mi Calm Calm - N/A   Clear
10:55 PM 53.6 °F 46.4 °F 77% 29.90 in 10.0 mi SW 4.6 mph - N/A   Clear
11:15 PM 51.8 °F 46.4 °F 82% 29.90 in 10.0 mi South 3.5 mph - N/A   Clear
11:35 PM 51.8 °F 46.4 °F 82% 29.90 in 10.0 mi Calm Calm - N/A   Clear
11:55 PM 55.4 °F 46.4 °F 72% 29.90 in 10.0 mi Calm Calm - N/A   Clear